EFHKEFOU

Guest
Details From EFHK - Helsinki Vantaa
To EFOU - Oulu
Flight Number -
Tags Decoded
Created
Modified
Stats Distance 277 nm / 513 km
Max Altitude 0 ft / 0 m
Waypoints 2
Social Downloads 2
Likes 0
Share VATSIM

Download

Looking for another format? Having issues loading an existing format? Contact us
Advertisement - Login to hide

Notes

Decoded

Route

EFHK EFOU

ID Type Via Altitude Latitude Longitude Leg Dist Tot Dist Heading (true) Name
O EFHK APT - 0 ft / 0 m 60.33028˚ 24.96450˚ - 0 nm - -
O EFOU APT - 0 ft / 0 m 64.93584˚ 25.33189˚ 276 nm 276 nm 2° / 2° -

Altitude Profile

Advertisement - Login to hide

Weather


0- 5 10 15 20 25 30 35+ Temperature / ° C

Clouds and Precipitation
Forecast for 2018-05-26 12:00 UTC. Updated 3 hours ago

Ground ~20,000 ft ~40,000 ft Winds

EFHK

Details ICAO EFHK (HEL)
Name Helsinki Vantaa
Region Finland
Timezone Europe/Helsinki (UTC+3.0)
Stats Elevation 179 ft / 55 m (AMSL)
Location 60.320569° 24.952668°
Runways 3
Magnetic Variation 9.024° E

METAR

EFHK 261350Z 14007KT 090V170 CAVOK 23/04 Q1027 NOSIG

Decode

TAF

TAF EFHK 261125Z 2612/2712 18005KT CAVOK BECMG 2704/2706 01010KT

Decode

Departure Runways

ID Width Length Bearing (true) Bearing (mag) Surface Threshold Offset Overrun Length
04L 197 ft / 60 m 9,817 ft / 2,992 m 47.43° 38.41° Asphalt 800 ft / 244 m 0 ft / 0 m
04R 197 ft / 60 m 10,472 ft / 3,192 m 47.46° 38.44° Asphalt 262 ft / 80 m 0 ft / 0 m
15 197 ft / 60 m 9,497 ft / 2,895 m 153.08° 144.06° Asphalt 0 ft / 0 m 198 ft / 60 m
22L 197 ft / 60 m 10,472 ft / 3,192 m 227.50° 218.48° Asphalt 0 ft / 0 m 197 ft / 60 m
22R 197 ft / 60 m 9,817 ft / 2,992 m 227.46° 218.44° Asphalt 912 ft / 278 m 0 ft / 0 m
33 197 ft / 60 m 9,497 ft / 2,895 m 333.10° 324.08° Asphalt 0 ft / 0 m 197 ft / 60 m

EFOU

Details ICAO EFOU (OUL)
Name Oulu
Region Finland
Timezone Europe/Helsinki (UTC+3.0)
Stats Elevation 47 ft / 14 m (AMSL)
Location 64.930059° 25.354560°
Runways 1
Magnetic Variation 10.743° E

METAR

EFOU 261350Z AUTO 29015KT CAVOK 16/M01 Q1027

Decode

TAF

TAF EFOU 261126Z 2612/2712 30015KT CAVOK TEMPO 2612/2617 30015G25KT

Decode

Destination Runways

ID Width Length Bearing (true) Bearing (mag) Surface Threshold Offset Overrun Length
12 197 ft / 60 m 8,180 ft / 2,493 m 121.01° 110.27° Asphalt 0 ft / 0 m 200 ft / 61 m
30 197 ft / 60 m 8,180 ft / 2,493 m 301.05° 290.31° Asphalt 0 ft / 0 m 200 ft / 61 m

Approach Navaids

Runway Type Ident Frequency Range Bearing (true) Bearing (mag) Slope Elevation
12 Localiser OU 109.50 MHz 18 nm / 33 km 121.06° 110.31° - 47 ft / 14 m (AMSL)
12 Glidescope OU 109.50 MHz 10 nm / 19 km 121.03° 110.29° 3.00° 47 ft / 14 m (AMSL)
12 DME OU 109.50 MHz 18 nm / 33 km - - - 100 ft / 30 m (AMSL)

Popular Alternatives